Lapse_Rate
7.5 7.6 7.7 7.9 8.0 8.7 8.3 8.2 7.2 6.7 6.3 6.0 5.4 5.4 5.6 5.4 5.6 5.6 5.5 5.5 5.3 5.4 5.6 5.3 5.0 5.2 5.5 5.2 5.7 5.5 6.3 6.1 6.0 5.8 5.7 5.6 5.7 5.1 5.3 5.5 5.6 5.9 5.8 5.8
7.9 8.1 8.4 8.4 8.8 8.3 8.0 8.4 7.8 6.2 5.2 6.6 6.3 5.9 5.4 5.7 5.6 5.3 5.5 5.6 5.4 5.2 5.3 5.2 5.5 5.0 5.4 5.4 5.5 5.8 6.0 5.9 5.9 6.0 5.8 5.5 5.6 5.4 5.5 5.6 5.9 5.9 6.1 6.0
8.3 8.6 8.7 8.7 8.5 7.9 8.3 8.7 7.8 6.7 6.1 5.6 6.2 5.5 5.2 5.5 5.8 5.6 5.5 5.5 5.5 5.0 5.5 5.1 5.2 5.2 5.3 5.3 5.3 5.8 5.8 5.9 5.8 6.1 5.4 5.4 5.7 5.6 5.5 5.5 5.9 6.1 6.1 6.0
8.6 9.0 9.1 8.7 8.7 8.5 8.9 8.6 7.2 6.7 5.2 5.3 7.3 5.7 5.1 5.4 5.6 5.6 5.6 5.4 5.3 5.0 5.5 5.2 4.9 5.2 5.4 5.3 6.0 5.9 5.6 5.8 5.8 5.9 5.9 5.5 5.4 5.2 5.6 5.9 6.1 5.8 6.0 6.0
9.0 9.3 9.6 9.3 9.0 8.8 8.9 8.1 7.9 8.2 7.0 7.0 7.0 6.2 5.9 6.1 5.9 6.1 6.0 5.8 5.5 5.8 6.0 5.7 5.4 5.8 5.3 5.2 6.0 6.0 5.9 5.8 5.8 5.8 5.9 5.7 5.6 5.3 5.0 5.6 5.7 5.4 5.8 5.8
9.5 9.4 9.6 9.3 9.0 8.6 8.8 8.5 8.6 8.0 7.3 5.7 7.1 7.4 6.4 6.5 7.2 6.6 5.6 6.0 5.6 5.2 5.5 5.5 5.3 5.2 5.4 5.3 5.2 6.2 5.9 6.0 5.7 5.8 5.7 5.8 5.7 5.3 5.4 5.6 5.8 5.8 5.5 5.7
9.3 9.6 9.5 8.7 8.8 9.0 8.8 8.9 8.8 9.1 8.4 8.8 9.0 8.3 7.3 7.1 7.9 7.4 7.3 6.7 6.4 5.7 5.9 5.8 5.4 5.0 5.7 5.1 5.3 6.0 6.1 6.0 5.9 5.7 5.7 5.8 5.7 5.8 5.5 5.4 5.5 5.7 5.9 5.9
9.6 9.3 9.0 8.6 8.9 9.6 8.7 8.9 9.3 8.4 9.0 8.8 9.1 8.2 7.7 8.0 8.0 8.4 7.5 6.8 6.0 5.8 5.9 5.9 5.3 5.6 5.3 5.2 5.0 5.4 5.8 6.2 6.0 6.0 5.9 5.7 5.7 5.9 5.7 5.6 5.6 5.6 5.2 5.5
9.6 9.6 9.2 8.8 8.5 9.1 9.6 8.8 8.7 9.4 7.6 8.5 8.7 7.8 7.6 7.0 6.7 6.4 6.2 6.2 6.2 5.5 5.8 5.2 5.4 5.3 5.5 5.8 5.4 5.8 5.6 6.0 6.3 6.2 6.2 5.9 5.8 5.9 5.9 6.0 5.9 5.6 5.4 5.7
9.3 9.2 9.5 9.0 8.8 8.7 9.0 9.6 9.1 9.0 9.2 8.7 9.3 8.6 8.3 7.6 5.5 7.4 6.8 6.4 6.0 5.8 5.7 5.4 5.2 5.4 5.5 5.5 5.1 5.9 5.4 5.9 6.0 6.3 6.3 6.2 6.1 6.1 6.0 6.0 6.0 5.8 6.0 5.8
8.8 9.5 9.6 9.6 9.0 8.9 8.9 9.0 9.4 9.5 9.7 9.6 8.4 8.1 7.9 7.6 7.6 7.3 7.5 7.2 6.4 6.1 5.7 5.3 5.2 5.0 5.2 5.3 5.0 5.2 5.5 5.8 5.9 6.0 6.2 6.4 6.2 6.1 6.1 6.0 6.1 6.0 5.9 6.0
8.6 9.2 9.3 9.4 9.7 8.8 9.6 9.6 9.3 9.6 9.5 9.5 9.7 9.5 7.9 7.7 7.7 6.3 7.8 7.9 7.1 6.5 6.2 5.4 5.2 5.3 4.9 4.9 4.7 6.6 5.6 5.9 6.0 6.1 6.2 6.0 6.1 6.2 6.2 6.1 6.0 6.1 6.1 6.1
8.6 9.0 9.5 9.1 9.2 9.7 9.3 9.7 9.7 9.6 9.6 9.6 9.7 8.3 7.9 8.0 7.8 8.1 8.5 7.3 7.3 6.9 6.6 5.9 5.3 5.1 4.9 5.2 5.3 5.2 5.6 5.9 5.9 5.9 6.1 6.3 6.1 6.3 6.4 6.1 6.2 6.1 6.1 6.1
8.5 8.9 8.5 7.1 8.2 8.6 9.3 9.6 9.5 9.7 9.6 9.7 9.6 9.0 8.6 8.5 8.3 7.6 7.7 7.5 7.8 6.9 6.5 6.2 5.4 5.1 5.6 5.3 4.9 5.0 5.9 5.9 5.8 5.8 5.9 6.0 6.1 6.1 6.2 6.3 6.3 6.1 6.0 6.1
8.5 8.7 9.0 8.5 8.5 8.4 8.3 9.2 9.6 9.6 9.4 9.4 8.8 8.6 8.6 7.9 7.4 6.4 6.4 6.9 7.1 7.1 6.3 5.9 5.5 5.5 5.6 4.9 5.6 5.0 5.2 5.4 5.8 5.5 5.3 5.8 6.0 5.8 5.7 5.9 5.9 6.0 5.9 5.9
8.6 8.5 8.6 8.9 8.6 8.7 9.2 9.2 9.3 9.6 9.3 9.1 9.6 8.8 7.9 7.5 7.4 6.8 4.5 7.9 7.0 6.7 6.4 5.9 5.7 5.8 5.8 6.1 5.7 5.2 5.5 5.6 6.0 6.3 6.0 5.9 6.0 6.0 5.8 5.7 5.6 5.8 5.8 5.8
9.0 8.7 8.6 9.0 9.4 9.5 9.4 9.0 9.0 9.2 9.6 9.3 8.3 7.7 7.4 6.7 6.5 7.6 7.1 7.0 7.1 7.1 6.8 6.1 6.1 6.0 6.1 6.5 6.5 6.0 5.8 5.8 6.2 6.2 6.2 6.2 6.0 5.8 5.6 5.5 5.5 5.6 5.8 5.8
8.4 8.8 8.7 8.6 9.1 9.4 8.8 8.9 8.8 9.5 9.2 8.7 8.4 7.5 6.2 5.9 5.7 7.3 7.5 7.3 7.2 6.6 7.1 6.7 6.5 6.9 6.7 6.3 6.4 6.3 6.3 6.3 6.5 6.4 6.3 6.2 6.1 5.7 5.5 5.3 5.2 5.3 5.3 5.5
9.1 9.2 9.2 9.2 9.3 9.2 9.0 8.6 8.3 8.3 9.2 8.3 8.3 8.0 6.9 6.4 5.6 6.5 6.6 7.3 7.6 8.0 7.7 7.0 6.7 6.6 6.7 6.6 6.6 6.4 6.4 6.4 6.3 6.2 6.1 6.0 6.0 5.9 5.2 5.0 5.0 5.1 5.2 5.1
9.0 9.0 8.7 8.7 9.1 7.9 7.9 7.9 8.2 8.0 8.3 8.0 7.6 7.6 7.2 6.5 5.0 6.3 6.8 6.7 7.2 7.8 7.5 7.3 7.0 6.8 7.0 6.9 6.6 6.5 6.2 6.0 6.0 6.0 6.2 6.3 5.9 5.2 5.2 5.1 4.9 5.1 5.0 5.1
9.1 8.6 8.9 9.3 9.1 8.5 7.3 7.6 7.5 8.2 7.9 7.3 7.2 7.3 6.9 6.6 7.5 7.0 7.1 7.1 7.0 6.6 7.1 7.2 7.1 7.0 7.0 6.9 6.7 6.4 6.2 6.4 5.8 5.9 5.8 6.0 5.5 5.0 4.7 4.8 5.3 5.0 5.0 5.0
8.3 8.7 9.0 9.0 9.1 8.8 7.8 7.9 7.9 7.6 7.6 7.2 7.1 7.2 6.6 6.8 7.5 7.1 7.3 7.1 6.9 7.1 7.2 7.3 7.1 6.8 6.6 6.4 6.4 6.1 5.9 5.9 5.9 5.7 5.7 5.8 5.4 5.1 4.9 4.9 5.1 5.1 5.0 4.9
8.1 8.7 8.8 8.3 8.1 7.8 7.4 7.6 7.4 7.3 7.2 7.5 7.6 7.4 6.8 6.9 7.5 7.2 7.3 7.2 7.0 7.1 7.1 7.1 7.1 6.9 6.7 6.5 6.1 6.0 6.0 5.7 6.0 5.9 5.7 5.8 5.5 5.6 4.9 5.1 5.1 4.9 4.6 4.8
8.9 8.9 9.0 8.4 8.1 7.5 7.2 6.6 6.9 7.3 7.5 7.4 7.2 6.9 7.0 6.7 7.2 7.2 7.2 7.4 7.2 6.8 6.8 6.8 6.7 6.8 6.7 6.5 6.3 6.2 6.1 6.3 6.0 6.1 5.5 5.6 5.6 5.6 5.5 5.6 5.4 5.6 4.8 5.2
8.1 8.2 8.2 8.6 8.0 8.4 7.6 7.0 6.9 7.1 7.1 7.2 7.0 6.8 6.6 6.2 6.8 6.8 7.1 7.1 7.2 7.2 6.6 6.3 6.3 6.3 6.3 6.3 6.2 6.3 6.1 6.3 6.2 5.9 5.7 5.2 5.5 5.3 5.2 5.5 5.6 5.4 5.3 5.3
8.0 8.2 8.2 8.0 7.6 7.2 7.5 7.5 7.5 7.6 7.1 7.2 7.0 6.6 6.5 6.5 6.9 6.9 6.9 6.9 6.9 6.8 6.5 6.4 6.3 6.3 6.2 6.1 6.4 6.2 5.9 5.9 5.8 5.8 5.7 5.6 4.9 5.3 5.2 5.8 5.6 5.6 5.6 5.5
Wind_Speed
16 11 14 18 18 10 10 4 7 7 11 17 13 14 18 17 14 14 8 11 6 13 16 16 18 8 12 12 9 6 12 9 6 4 4 4 2 2 6 9 10 8 1 3
11 16 19 21 16 6 10 17 5 9 13 10 15 14 17 17 10 7 4 5 9 6 16 13 17 16 16 13 11 7 10 11 5 3 2 3 2 2 4 3 9 7 5 2
17 17 19 19 15 10 19 16 9 5 12 23 16 10 13 15 7 10 4 4 9 10 2 0 19 18 17 16 13 12 10 9 7 5 5 4 2 3 3 3 3 6 8 5
17 16 20 19 13 14 13 4 20 19 4 2 14 6 11 12 15 19 15 19 17 15 3 16 14 18 18 16 16 12 12 11 8 6 4 8 6 3 6 5 3 2 6 4
15 15 14 19 16 11 13 6 7 14 4 6 15 5 6 12 17 23 22 25 23 15 18 12 10 13 15 20 18 15 13 10 5 7 3 6 5 1 2 4 4 2 2 4
16 14 11 9 6 15 2 7 13 11 4 5 24 9 6 11 26 20 21 23 25 19 17 13 4 12 12 12 15 17 14 10 8 7 6 6 3 5 2 6 6 6 5 4
17 8 9 10 17 16 6 8 6 5 9 11 14 11 8 27 22 25 24 23 23 20 20 15 10 6 3 10 10 15 16 12 11 8 7 5 5 5 5 4 4 4 3 4
13 9 12 9 14 12 10 14 10 10 2 10 16 9 12 30 20 19 25 24 23 23 20 20 20 13 6 10 10 18 15 14 11 11 8 5 5 6 4 5 2 4 5 4
13 15 18 14 14 14 13 13 20 23 11 12 2 3 18 9 16 17 21 20 22 23 22 19 16 18 16 12 8 13 16 14 13 12 9 6 6 4 4 5 2 3 6 4
5 14 18 17 14 15 16 11 10 11 8 11 4 8 3 3 14 8 24 22 22 20 22 18 20 19 15 13 13 10 16 14 12 12 11 9 8 6 4 4 4 2 1 9
13 9 2 11 13 13 11 14 11 12 11 10 4 6 8 10 6 14 16 23 20 23 20 19 16 17 16 10 11 14 15 14 12 11 12 10 9 10 8 5 4 5 2 3
14 14 12 15 13 13 15 15 16 9 10 11 12 6 19 18 13 10 31 15 22 21 19 16 13 10 14 17 12 10 17 14 14 11 10 10 8 9 9 7 6 5 4 3
11 7 8 2 12 15 12 11 12 17 14 13 11 6 16 18 22 29 19 17 19 18 17 15 14 10 14 5 12 13 21 13 13 11 10 10 8 6 9 8 8 7 5 5
7 10 7 5 8 10 12 13 18 15 13 13 10 11 8 12 4 12 11 21 21 19 16 13 11 10 10 14 13 16 15 5 5 1 13 9 11 8 7 6 5 6 6 6
5 9 2 2 4 7 21 16 17 16 13 11 13 8 6 10 19 18 13 17 17 18 15 13 14 13 11 13 14 10 4 3 1 9 1 6 7 6 6 5 6 4 7 8
5 9 9 11 5 11 15 8 11 6 15 12 16 4 12 10 14 22 32 11 13 15 12 11 9 10 10 11 7 5 4 3 4 4 2 2 5 5 5 4 6 5 6 5
5 7 8 12 8 12 11 10 10 10 10 7 15 13 15 11 15 18 17 4 8 12 9 8 10 8 8 10 7 8 8 8 8 7 5 4 2 4 4 4 3 4 4 5
10 5 7 10 9 12 7 16 17 16 7 7 9 13 18 9 9 10 3 0 7 8 11 9 8 11 10 9 9 8 8 8 9 8 9 9 9 10 7 2 2 2 1 3
9 3 7 8 11 8 7 10 11 20 4 10 7 11 18 12 7 4 1 7 9 12 12 11 11 9 7 8 8 8 8 9 9 9 8 7 7 8 7 8 7 5 4 5
7 4 6 10 12 9 7 1 12 17 4 15 10 7 14 20 4 4 11 11 12 12 10 10 11 9 10 8 4 8 10 9 8 8 8 7 7 7 7 7 7 6 8 9
5 6 11 10 12 4 5 1 2 8 5 9 10 10 12 12 12 10 12 12 14 11 12 11 11 10 8 8 7 6 7 10 9 8 8 8 8 7 6 5 5 6 7 8
11 10 10 7 12 5 8 6 5 3 5 6 7 10 12 11 16 13 10 12 13 13 13 12 10 9 8 8 10 10 10 6 7 8 9 8 6 4 2 4 4 5 5 6
7 7 9 2 2 4 5 7 4 5 3 3 5 7 6 14 15 14 12 12 11 12 12 12 11 10 8 8 8 9 6 6 5 6 8 7 5 4 4 3 4 3 4 3
3 8 3 9 1 8 16 9 6 3 3 2 2 8 13 15 12 11 12 10 10 10 11 12 12 10 8 6 7 6 3 4 3 4 5 6 6 5 5 6 6 6 5 3
4 6 2 7 2 4 5 9 5 5 3 5 3 9 14 16 13 13 10 8 8 8 7 8 11 10 9 7 6 4 2 2 2 3 2 3 3 7 8 8 6 6 6 4
4 4 4 1 9 5 5 13 22 1 5 6 3 14 12 15 15 13 10 8 9 10 10 9 9 10 9 8 6 6 1 2 1 2 1 1 4 4 4 5 6 13 8 12
Wind_Direction
200 213 217 223 232 254 209 183 229 125 298 171 147 151 170 185 237 257 133 169 226 169 145 165 119 102 118 130 113 104 122 135 146 160 160 212 248 60 99 136 165 98 181 39
183 220 228 234 230 194 262 265 175 106 303 203 156 154 176 184 213 104 80 345 339 233 164 140 140 154 148 128 138 134 136 146 181 202 129 81 108 55 85 59 133 138 158 226
222 212 228 240 235 217 240 265 101 81 167 249 140 141 175 179 176 112 102 322 298 297 307 177 156 161 146 149 155 154 165 167 193 177 134 90 51 98 27 155 179 190 181 193
232 236 198 237 225 245 242 82 135 145 256 158 189 139 186 184 192 177 175 193 215 224 247 209 180 153 162 163 162 157 164 166 200 167 193 153 185 184 188 190 168 214 194 204
219 238 205 226 218 235 255 180 126 105 9 45 214 91 179 184 219 206 187 203 216 209 200 205 207 172 185 162 163 162 161 176 193 179 210 173 195 168 194 111 127 86 244 223
242 225 211 246 229 242 255 223 178 114 93 285 251 158 173 200 222 205 202 208 203 198 223 235 348 307 154 158 156 149 152 165 173 163 199 193 142 103 325 167 165 176 195 203
234 228 164 245 234 224 244 243 230 233 188 235 147 190 140 208 206 197 196 201 200 194 201 208 188 198 24 199 166 150 149 164 167 181 174 185 168 144 156 140 205 184 197 203
218 188 241 194 251 218 195 244 247 213 301 323 327 350 160 186 199 186 184 200 194 177 194 215 153 129 237 267 352 151 155 157 185 171 178 175 190 178 183 201 199 250 183 245
217 244 177 194 231 247 216 223 256 280 37 278 164 183 164 179 212 192 180 189 191 184 193 203 155 162 180 226 218 164 158 166 183 167 169 182 187 234 204 137 187 243 131 103
248 286 170 201 197 230 257 276 235 246 241 259 283 174 237 171 352 198 176 192 189 182 188 204 161 173 184 194 217 197 160 167 179 173 165 173 189 182 189 184 223 247 9 153
294 290 139 179 200 230 215 248 266 288 257 247 139 215 131 101 163 279 282 187 182 182 184 193 184 167 168 120 285 197 163 168 181 177 172 171 186 177 180 189 206 221 204 176
256 305 179 243 216 223 254 220 240 254 259 274 292 315 127 106 87 1 277 175 170 180 182 181 175 190 170 159 189 279 154 174 183 183 171 173 194 168 169 193 195 207 191 238
346 266 255 16 295 202 232 267 247 242 262 271 278 123 171 166 166 203 209 152 160 162 173 179 172 174 132 111 101 299 310 178 187 164 176 176 180 199 182 191 167 198 181 205
307 294 107 229 302 316 307 248 266 244 224 251 268 134 105 49 43 359 154 150 155 160 165 165 165 109 122 126 133 195 239 115 100 144 176 169 177 190 208 185 187 160 184 185
299 294 316 15 219 304 279 288 233 254 275 292 88 32 347 79 50 12 308 141 156 154 158 156 150 130 125 130 188 195 168 124 141 147 244 151 170 194 214 176 181 183 173 192
223 277 297 271 262 239 264 295 312 268 239 273 289 345 104 111 78 50 308 94 141 148 139 139 151 150 154 158 143 156 133 99 14 314 297 223 184 188 223 207 191 199 195 206
249 278 295 284 289 271 242 287 266 276 284 8 38 10 52 100 133 141 218 278 132 137 128 140 161 156 136 85 89 86 86 70 60 50 42 32 270 212 202 207 210 217 230 222
240 234 280 288 290 246 36 12 349 245 48 27 31 29 54 65 97 127 157 210 162 132 99 83 81 96 103 119 120 131 107 98 90 70 60 49 51 33 7 343 148 258 253 221
285 299 288 283 268 263 16 14 351 342 347 48 41 77 90 56 2 21 353 49 95 92 84 72 61 51 88 107 115 106 98 95 87 75 61 51 51 53 27 31 10 352 137 85
262 266 256 270 288 305 360 313 325 314 93 9 360 354 124 114 241 143 97 90 86 77 68 73 69 56 52 24 98 119 112 102 95 90 80 74 62 58 53 33 356 18 64 81
298 243 272 273 266 120 136 48 348 286 25 7 349 351 45 68 74 103 87 71 78 84 80 70 62 57 44 35 49 74 103 89 101 100 91 81 72 69 62 56 22 23 77 83
301 297 302 298 303 254 171 249 286 88 281 3 339 19 86 104 95 103 96 99 97 93 89 82 77 64 51 40 65 58 62 59 89 98 91 85 62 59 61 103 86 33 69 100
246 274 304 179 318 184 217 164 238 331 57 10 335 292 124 124 113 107 102 90 95 98 96 94 91 79 60 61 60 70 32 25 32 95 101 94 89 90 82 59 60 113 86 79
12 16 345 16 234 87 7 308 127 136 99 354 354 39 89 116 115 122 115 112 118 120 115 109 100 95 85 66 85 91 70 358 43 84 86 108 110 88 52 39 38 47 22 4
55 135 223 265 86 13 46 320 77 64 26 59 26 104 116 122 127 129 116 119 118 112 119 121 123 112 109 111 106 76 161 159 144 85 106 96 75 76 71 54 22 74 43 21
264 156 193 64 100 97 323 335 328 68 48 29 352 118 117 123 140 133 134 151 143 129 123 116 124 126 127 122 142 134 131 161 123 134 148 212 139 131 120 100 72 47 45 40